Location: *
(50.3194°N, 7.1067°E)
Time: 16:54:19
(UTC+00:00)

SL-8 Rocket - Pass Details

Date: 22 September 2019
Orbit: 956 x 991 km, 82.9° (Epoch: 22 October)

Event Time Altitude Azimuth Distance (km) Brightness Sun altitude
Rises 18:51:00 0° 351° (N) 3,670 7.4 -13.5°
Reaches altitude 10° 18:53:32 10° 353° (N) 2,715 6.7 -13.9°
Maximum altitude 18:59:45 76° 79° (E) 994 3.9 -14.8°
Drops below altitude 10° 19:05:53 10° 165° (SSE) 2,682 6.0 -15.7°
Enters shadow 19:07:52 - 167° (SSE) 3,430 6.5 -16.0°
